Regional Weather Roundup
Issued by NWS

Home | Current Version | Previous Version | Graphics & Text | Print | Product List | Glossary On
Versions: 1 2 3 4 5 6 7 8 9 10 11 12 13 14 15 16 17 18 19 20 21 22 23 24 25 26 27 28 29 30 31 32 33 34 35 36 37 38 39 40 41 42 43 44 45 46 47 48 49 50
000
ASUS43 KFSD 231310
RWRSD

WEATHER ROUNDUP FOR SOUTH DAKOTA
NATIONAL WEATHER SERVICE SIOUX FALLS SD
800 AM CDT THU MAR 23 2017

NOTE: "FAIR" INDICATES FEW OR NO CLOUDS BELOW 12,000 FEET WITH NO
SIGNIFICANT WEATHER AND/OR OBSTRUCTIONS TO VISIBILITY.


SDZ001>005-009-010-012>017-231400-
NORTHWEST AND NORTH CENTRAL SOUTH DAKOTA

CITY           SKY/WX    TMP DP  RH WIND       PRES   REMARKS
BUFFALO          N/A     43  39  86 N10       29.61F
FAITH            N/A     37  36  96 N6        29.70R
MOBRIDGE       CLOUDY    42  30  62 SE8       29.71S
$$

SDZ012>016-024>037-041>051-057-063-072>074-231400-
SOUTHWEST AND SOUTH CENTRAL SOUTH DAKOTA

CITY           SKY/WX    TMP DP  RH WIND       PRES   REMARKS
RAPID CTY ARPT CLOUDY    47  40  76 N13       29.66S
PIERRE         CLOUDY    40  31  70 SE13      29.73F
CUSTER         CLOUDY    43  34  70 N6        29.68F
ELLSWORTH AFB  CLOUDY    46  43  89 N17       29.66R
PHILIP         CLOUDY    44  36  73 NE7       29.65F
PINE RIDGE     PTCLDY    43  37  79 SW13      29.66F
SPEARFISH      FAIR      43  41  93 CALM      29.72S
WINNER         FAIR      47  33  58 S12G22    29.76R
$$

SDZ004>011-016>023-039-040-231400-
NORTHEAST SOUTH DAKOTA

CITY           SKY/WX    TMP DP  RH WIND       PRES   REMARKS
ABERDEEN       PTCLDY    37  27  67 S17       29.80F
WATERTOWN      PTCLDY    35  26  69 S13       29.88F WCI  26
BROOKINGS      CLOUDY    36  25  64 SE15      29.91F
SISSETON         N/A     34  29  82 S14       29.88F WCI  25
$$

SDZ017-020-022-023-036>040-048>070-231400-
SOUTHEAST SOUTH DAKOTA

CITY           SKY/WX    TMP DP  RH WIND       PRES   REMARKS
SIOUX FALLS    MOCLDY    39  25  57 SE16      29.93F
HURON          PTCLDY    40  29  64 S21G30    29.84S
CHAMBERLAIN    CLOUDY    43  34  69 E10       29.78F
MITCHELL       CLOUDY    41  29  62 SE16      29.87S
YANKTON        CLOUDY    43  27  52 SE17G23   29.89F
$$

ABBREVIATIONS USED IN REMARKS
   TC - TEMPERATURE IN CELSIUS
  WCI - WIND CHILL INDEX
   HX - HEAT INDEX
  VSB - VISIBILITY





USA.gov is the U.S. government's official web portal to all federal, state and local government web resources and services.